Location: Treviso
(45.6669°N, 12.2430°E)
Time: 03:14:52
(UTC+02:00)

ISS - Visible Passes

Search period start: 25 May 2017 00:00
Search period end: 04 June 2017 00:00
Orbit: 402 x 409 km, 51.6° (Epoch: 25 May)

Date Brightness Start Highest point End Pass type
(mag) Time Alt. Az. Time Alt. Az. Time Alt. Az.
25 May -1.6 01:06:47 10° WNW 01:09:41 27° N 01:12:34 10° ENE visible
25 May -2.6 02:43:31 10° NW 02:46:42 43° NNE 02:49:51 10° E visible
25 May -3.4 04:20:05 10° WNW 04:23:11 39° SW 04:26:16 10° SSE visible
25 May -3.7 22:37:20 10° WSW 22:40:38 76° NNW 22:43:55 10° ENE visible
26 May -1.7 00:14:31 10° WNW 00:17:28 29° N 00:20:25 10° NE visible
26 May -2.1 01:51:30 10° NW 01:54:32 33° NNE 01:57:34 10° E visible
26 May -4.0 03:27:58 10° WNW 03:31:14 69° SSW 03:34:29 10° SE visible
26 May -3.9 21:45:20 10° SW 21:48:36 66° SSE 21:51:53 10° ENE visible
26 May -2.0 23:22:13 10° W 23:25:16 34° NNW 23:28:20 10° NE visible
27 May -1.8 00:59:24 10° NW 01:02:20 29° N 01:05:16 10° ENE visible
27 May -3.7 02:35:54 10° WNW 02:39:12 73° NNE 02:42:28 10° ESE visible
27 May -2.4 04:13:00 10° W 04:15:22 18° SW 04:17:44 10° S visible
27 May -2.6 22:29:55 10° W 22:33:06 44° NNW 22:36:18 10° NE visible
28 May -1.6 00:07:13 10° WNW 00:10:07 27° N 00:13:00 10° ENE visible
28 May -2.9 01:43:52 10° NW 01:47:05 49° NNE 01:47:25 46° NE visible
28 May -3.3 21:37:41 10° WSW 21:40:58 64° NNW 21:44:15 10° ENE visible
28 May -1.7 23:14:56 10° WNW 23:17:52 28° N 23:20:47 10° ENE visible
29 May -2.3 00:51:49 10° NW 00:54:55 36° NNE 00:56:00 28° ENE visible
29 May -1.2 02:28:18 10° WNW 02:28:35 12° WNW 02:28:35 12° WNW visible
29 May -1.9 22:22:36 10° WNW 22:25:37 32° N 22:28:38 10° NE visible
29 May -1.9 23:59:42 10° NW 00:02:41 30° N 00:05:06 14° ENE visible
30 May -2.0 01:36:11 10° WNW 01:37:43 25° WNW 01:37:43 25° WNW visible
30 May -2.3 21:30:15 10° W 21:33:23 39° NNW 21:36:32 10° NE visible
30 May -1.7 23:07:31 10° WNW 23:10:25 28° N 23:13:20 10° ENE visible
31 May -3.0 00:44:06 10° WNW 00:47:00 52° N 00:47:00 52° N visible
31 May -1.7 22:15:14 10° WNW 22:18:08 28° N 22:21:03 10° ENE visible
31 May -2.6 23:52:01 10° NW 23:55:10 40° NNE 23:56:24 28° ENE visible
01 Jun -1.2 01:28:32 10° WNW 01:29:02 13° WNW 01:29:02 13° WNW visible
01 Jun -2.1 22:59:54 10° NW 23:02:55 32° NNE 23:05:50 11° ENE visible
02 Jun -2.6 00:36:21 10° WNW 00:38:28 36° WNW 00:38:28 36° WNW visible
02 Jun -1.9 22:07:41 10° WNW 22:10:37 28° N 22:13:33 10° ENE visible
02 Jun -3.6 23:44:13 10° WNW 23:47:30 66° NNE 23:47:57 57° ENE visible
03 Jun -2.8 22:52:07 10° NW 22:55:18 45° NNE 22:57:28 18° E visible
